Regional Weather Roundup
Issued by NWS Sterling, VA

Home | Current Version | Previous Version | Text Only | Print | Product List | Glossary Off
Versions: 1 2 3 4 5 6 7 8 9 10 11 12 13 14 15 16 17 18 19 20 21 22 23 24 25 26 27 28 29 30 31 32 33 34 35 36 37 38 39 40 41 42 43 44 45 46 47 48 49 50

000
ASUS41 KLWX 191510
RWRLWX

REGIONAL WEATHER ROUNDUP
NATIONAL WEATHER SERVICE BALTIMORE MD/WASHINGTON DC
1000 AM EST FRI DEC 19 2014

Note: "FAIR" indicates few or no clouds below 12,000 feet
with no significant weather and/or obstructions to visibility.
 TC=TEMPERATURE CELSIUS

 * =Non NWS site. Station does not report precipitation (e.g. rain,
    snow, etc.), thunder, or fog.

DCZ001-MDZ009-015-VAZ040>042-051-053>054-191600-
WASHINGTON METRO

CITY           SKY/WX    TMP DP  RH WIND       PRES   REMARKS
WASHINGTON NAT CLOUDY    39  22  50 NW13      30.19R
DULLES         CLOUDY    35  22  58 NW13      30.18R WCI  26
FT BELVOIR     CLOUDY    37  22  56 NW14      30.19R WCI  28
QUANTICO       PTSUNNY   37  22  54 N8G20     30.21R
COLLEGE PARK*  CLOUDY    36  25  64 NW6       30.17R
LEESBURG*      CLOUDY    36  28  75 NW13G22   30.18S WCI  27
GAITHERSBURG*  CLOUDY    34  21  60 NW13      30.19R WCI  25

$$

MDZ006>007-011-014-191600-
BALTIMORE METRO

CITY           SKY/WX    TMP DP  RH WIND       PRES   REMARKS
BWI AIRPORT    CLOUDY    36  23  59 W10       30.15R WCI  28
MD SCIENCE CTR   N/A     37  23  56 MISG      30.16R
MARTIN STATE   CLOUDY    37  27  65 W10G18    30.16S
ANNAPOLIS      CLOUDY    37  25  61 NW10      30.16R
FORT MEADE*    CLOUDY    36  25  64 NW8       30.19R

$$

MDZ012-015-019>023-191600-
MARYLAND EASTERN SHORE

CITY           SKY/WX    TMP DP  RH WIND       PRES   REMARKS
OCEAN CITY     CLOUDY    38  26  62 NW12      30.14R
SALISBURY      CLOUDY    40  25  55 NW13G23   30.15R
BAY BRIDGE AP*   N/A     36  27  69 NW9       30.17R WCI  29
CAMBRIDGE*     CLOUDY    37  27  65 NW9       30.15S
EASTON*        CLOUDY    37  28  70 NW12      30.19R

$$

MDZ017>025-191600-
SOUTHERN MARYLAND

CITY           SKY/WX    TMP DP  RH WIND       PRES   REMARKS
PATUXENT RIVER PTSUNNY   37  23  56 NW14      30.18R WCI  28
ST INIGOES     CLOUDY    37  22  54 NW7       30.17R
LEONARDTOWN*   CLOUDY    36  23  60 NW5       30.19R

$$

MDZ003>005-191600-
NORTH CENTRAL MARYLAND

CITY           SKY/WX    TMP DP  RH WIND       PRES   REMARKS
FREDERICK*     CLOUDY    37  21  52 NW12      30.19R
HAGERSTOWN APT CLOUDY    35  23  61 NW15      30.14F WCI  25
WESTMINSTER*   CLOUDY    34  25  69 NW10      30.12S WCI  26

$$

MDZ501>502-191600-
WESTERN MARYLAND

CITY           SKY/WX    TMP DP  RH WIND       PRES   REMARKS
OAKLAND*       CLOUDY    21 N/A N/A W7        30.08S HAZE
CUMBERLAND*    CLOUDY    34  23  64 NW3       30.23R

$$

VAZ025>031-191600-
SHENANDOAH VALLEY

CITY           SKY/WX    TMP DP  RH WIND       PRES   REMARKS
WINCHESTER*    CLOUDY    34  21  60 NW16G24   30.17R WCI  23
FRONT ROYAL*   CLOUDY    32  23  69 NW5       30.18R
LURAY*         CLOUDY    36  28  75 SE3       30.18R
NEW MARKET*    CLOUDY    33  23  66 CALM      30.17R
STAUNTON*      SUNNY     33  24  68 CALM      30.18R
WAYNESBORO*    FAIR      32  23  68 N7        30.15R

$$

WVZ021-048>050-054>055-191600-
EASTERN WEST VIRGINIA PANHANDLE

CITY           SKY/WX    TMP DP  RH WIND       PRES   REMARKS
MARTINSBURG    CLOUDY    35  20  54 NW15G23   30.17S WCI  25
PETERSBURG*    PTSUNNY   33  22  62 N5        30.20R

$$

VAZ036>039-050-191600-
CENTRAL FOOTHILLS

CITY           SKY/WX    TMP DP  RH WIND       PRES   REMARKS
CHARLOTTESVILL SUNNY     36  25  64 SW3       30.17R
CULPEPER*      MOSUNNY   37  25  60 N6        30.19R
ORANGE*        SUNNY     36  27  69 CALM      30.20R
GORDONSVILLE*  FAIR      35  23  62 CALM      30.18R
WARRENTON*     CLOUDY    39  29  66 NW7       30.18R

$$

VAZ055>057-191600-
NORTH AND CENTRAL PIEDMONT

CITY           SKY/WX    TMP DP  RH WIND       PRES   REMARKS
FREDERICKSBRG* SUNNY     39  25  57 NW8G18    30.19R
STAFFORD*      SUNNY     37  22  54 N17G23    30.24R WCI  27

$$

NCZ024-NYZ072-PAZ021-071-VAZ022-071-191600-
OTHER REGIONAL OBSERVATIONS

CITY           SKY/WX    TMP DP  RH WIND       PRES   REMARKS
NEW YORK CITY  CLOUDY    35  20  54 NW8       30.08R WCI  29
PHILADELPHIA   CLOUDY    38  24  57 NW9G18    30.11R
PITTSBURGH     LGT SNOW  29  27  92 W6        30.20R FOG
ROANOKE        SUNNY     38  22  52 W12G18    30.20R
RICHMOND       SUNNY     40  23  50 N9        30.20R
RALEIGH        MOSUNNY   44  22  41 N5        30.20R

$$

ANZ530>537-191600-
MARINE OBSERVATIONS

STATION/POSITION TIME  TEMP    WIND        PRES
                       AIR SEA DIR/SP/G
                 (UTC) (F)     (DEG/KT/KT) (MB)
THOMAS PT LIGHT  1500   36 41  320/ 12/ 14 1022.6R
BALT KEY BRIDGE  1500   36     280/ 11/ 13 1021.0R
COVE POINT       1500   35     330/ 12/ 17 1021.6R
LEWISETTA        1500   37 42  340/ 11/ 14 1021.9S
SOLOMONS ISLAND  1500      44                N/A
PINEY POINT      1500          350/ 15/ 18   N/A

$$



USA.gov is the U.S. government's official web portal to all federal, state and local government web resources and services.